Home   Weather   Rotherham   Past weeks

Flag for United Kingdom Past Weather in Rotherham, England, United Kingdom — Yesterday and Last 2 Weeks

Now
35 °F

Fog.


Feels Like: 29 °F
Forecast: N/A
Wind: 6 mph from Northeast

Location: Nottingham Weather Centre

Current Time: Dec 5, 2016 at 4:52:01 pm

Latest Report: Dec 5, 2016 at 4:00 pm


Visibility: 2 mi

Pressure: 30.28 "Hg

Humidity: 95%

Dew Point: 33 °F

Location of RotherhamLocation

Past Weather in Rotherham — Graph

°F

Rotherham Temperature Yesterday

Maximum temperature yesterday: 43 °F (at 1:00 pm)
Minimum temperature yesterday: 33 °F (at 11:00 pm)
Average temperature yesterday: 39 °F

High & Low Weather Summary for the Past Weeks

 TemperatureHumidityPressure
High48 °F (Nov 25, 1:00 pm)100% (Nov 22, 2:00 am)30.59 "Hg (Nov 22, 2:00 am)
Low28 °F (Nov 29, 7:00 am)52% (Nov 28, 1:00 pm)29.09 "Hg (Nov 21, 4:00 pm)
Average40 °F88%30.19 "Hg
* Reported Nov 20 3:00 pm — Dec 5 3:00 pm, Rotherham, Weather by CustomWeather, © 2016

Note: Actual official high and low records may vary slightly from our data, if they occured in-between our weather recording intervals... More about our weather records

Advertising

Rotherham Weather History for the Previous 24 Hours

Scroll right to see more
 ConditionsComfort  
Time TempWeatherWind HumidityBarometerVisibility
3:00 pm
Mon, Dec 5
37 °FSmoke.5 mph92%30.27 "Hg3 mi
2:00 pm38 °FSmoke.5 mph91%30.27 "Hg4 mi
1:00 pm38 °FSmoke.3 mph90%30.27 "Hg4 mi
12:00 pm38 °FSmoke.5 mph91%30.28 "Hg5 mi
11:00 am36 °FFog.5 mph95%30.29 "Hg4 mi
10:00 am33 °FFog.3 mph98%30.29 "Hg3 mi
9:00 am31 °FFog.3 mph99%30.29 "Hg3 mi
8:00 am29 °FFog.3 mph98%30.28 "Hg3 mi
7:00 am29 °FFog.5 mph98%30.27 "Hg4 mi
6:00 am29 °FFog.6 mph98%30.27 "Hg4 mi
5:00 am30 °FFog.5 mph98%30.27 "Hg5 mi
4:00 am30 °FChilly.5 mph97%30.28 "Hg7 mi
3:00 am30 °FChilly.6 mph97%30.28 "Hg9 mi
2:00 am31 °FChilly.5 mph96%30.28 "Hg7 mi
1:00 am32 °FChilly.8 mph96%30.28 "Hg9 mi
12:00 am32 °FChilly.7 mph96%30.29 "Hg9 mi
11:00 pm
Sun, Dec 4
33 °FChilly.8 mph95%30.29 "Hg10 mi
10:00 pm34 °FChilly.9 mph94%30.30 "Hg12 mi
9:00 pm35 °FChilly.9 mph91%30.29 "Hg14 mi
8:00 pm36 °FChilly.10 mph89%30.29 "Hg15 mi
7:00 pm37 °FChilly.12 mph90%30.29 "Hg14 mi
6:00 pm38 °FChilly.10 mph91%30.29 "Hg15 mi
5:00 pm38 °FChilly.10 mph89%30.28 "Hg16 mi
4:00 pm40 °FChilly.10 mph86%30.28 "Hg17 mi
Weather by CustomWeather, © 2016

See weather overviewHow to use our weather pages